星链-31311 (STARLINK-31311 )

导读

STARLINK-31311是美国太空探索技术公司(SpaceX)于2024年2月10日发射的星链(Starlink)低轨互联网卫星。星链计划是全球规模最大的卫星互联网项目,计划总计部署超4万颗近地轨道卫星,旨在为全球提供不受地域限制的高速宽带互联网接入服务,STARLINK-31311是星链星座组网过程中的重要组成部分,助力星链完善全球网络覆盖能力。

Basic Information
目录编号:
58948
目录名称:
STARLINK-31311
国际标识:
2024-027T
轨道中心:
EARTH
卫星名称:
星链-31311
卫星全名:
星链-31311 (STARLINK-31311 )
卫星状态:
在轨 (已飞行937 天)
发射日期:
2024-02-10 UTC
国别 :
美国 (US)
星等 :
--
Orbit Information
数据来源 国际轨道数据
星历时间: 2026-09-03T13:54:54+0800
21小时前
查看轨道信息
半长轴: 6840.86km
偏心率: 0.0001491
轨道倾角: 53.161°
近地点辐角 102.815°
升交点赤经 202.016°
平近点角 257.302°
近地点: 461.703km
远地点: 463.743km
周期: 93.848分钟
每日圈数: 15.343936
Detailed Information
固有亮度:
5
最大亮度:
0.3
卫星平台:
Starlink v2.0 mini
覆盖范围:
全球
运营商:
太空探索技术公司
运营商所在国:
美国
制造商(研发单位):
太空探索技术公司
制造商所在国:
美国
使用方式:
暂无
Satellite Introduction
星链(Starlink)计划是由太空探索技术公司(SpaceX)提出的一个巨型低轨卫星互联网星座项目,计划在2019年至2024年间在太空搭建由约1.2万颗卫星组成的“星链”网络,其中1584颗将部署在地球上空550千米处的近地轨道,并从2020年开始工作。该卫星仍在工作。
2D Orbit Map
3D Orbit Map
Orbit Altitude Analysis Chart
Orbit Inclination Analysis Chart
Orbit Comprehensive Analysis Chart
View Comprehensive Chart
Conjunction Data List
Event ID Objects TCA Miss Dist (km) Collision Risk Probability Collision Risk Index (CRI) Action
CDM_260905-112305-894806-895921
2026-09-05T
11:23:43+0000
0.334 km
远距离
2.53085E-4 高风险 0.83
CDM_260905-000705-894806-286121
2026-09-05T
00:07:30+0000
0.739 km
远距离
6.400805E-5 中风险 0.71
CDM_260904-205405-894806-602521
2026-09-04T
20:54:49+0000
1.092 km
极远距离
1.723218E-5 中风险 0.6
CDM_260905-014105-894806-286121
2026-09-05T
01:41:17+0000
2.122 km
极远距离
2.194521E-6 低风险 0.42
CDM_260904-223305-894806-286121
2026-09-04T
22:33:42+0000
2.366 km
极远距离
1.736909E-6 低风险 0.4
CDM_260905-094905-894806-895921
2026-09-05T
09:49:55+0000
2.831 km
极远距离
7.605454E-7 极低风险 0.33